Location: Callanans Corners
(42.5326°N, 73.8846°W)
Time: 16:14:51
(UTC+00:00)

USA 267 - Pass Details

Date: 06 October 2022
Orbit: 1095 x 1112 km, 123.0° (Epoch: 28 November)

Event Time Altitude Azimuth Distance (km) Brightness Sun altitude
Exits shadow 23:08:18 - 109° (ESE) 3,146 5.1 -8.2°
Reaches altitude 10° 23:08:50 10° 108° (ESE) 2,948 4.9 -8.3°
Maximum altitude 23:15:09 56° 32° (NNE) 1,294 3.5 -9.5°
Drops below altitude 10° 23:21:30 10° 317° (NW) 2,968 6.2 -10.6°
Sets 23:24:02 0° 313° (NW) 3,930 7.0 -11.1°
